Year,Month,Day,Hour,Minute,Value (Times are PST for temperature in C)
2010,08,24,00,00,14.10
2010,08,24,00,01,14.00
2010,08,24,00,02,14.00
2010,08,24,00,03,14.00
2010,08,24,00,04,13.90
2010,08,24,00,05,13.90
2010,08,24,00,06,13.90
2010,08,24,00,07,13.80
2010,08,24,00,08,13.80
2010,08,24,00,09,13.80
2010,08,24,00,10,13.70
2010,08,24,00,11,13.70
2010,08,24,00,12,13.70
2010,08,24,00,13,13.60
2010,08,24,00,14,13.60
2010,08,24,00,15,13.60
2010,08,24,00,16,13.60
2010,08,24,00,17,13.50
2010,08,24,00,18,13.50
2010,08,24,00,19,13.40
2010,08,24,00,20,13.40
2010,08,24,00,21,13.40
2010,08,24,00,22,13.40
2010,08,24,00,23,13.40
2010,08,24,00,24,13.40
2010,08,24,00,25,13.40
2010,08,24,00,26,13.30
2010,08,24,00,27,13.30
2010,08,24,00,28,13.30
2010,08,24,00,29,13.30
2010,08,24,00,30,13.20
2010,08,24,00,31,13.20
2010,08,24,00,32,13.20
2010,08,24,00,33,13.20
2010,08,24,00,34,13.20
2010,08,24,00,35,13.20
2010,08,24,00,36,13.10
2010,08,24,00,37,13.10
2010,08,24,00,38,13.10
2010,08,24,00,39,13.10
2010,08,24,00,40,13.10
2010,08,24,00,41,13.00
2010,08,24,00,42,13.00
2010,08,24,00,43,13.00
2010,08,24,00,44,12.90
2010,08,24,00,45,12.90
2010,08,24,00,46,12.90
2010,08,24,00,47,12.90
2010,08,24,00,48,12.80
2010,08,24,00,49,12.80
2010,08,24,00,50,12.80
2010,08,24,00,51,12.80
2010,08,24,00,52,12.80
2010,08,24,00,53,12.80
2010,08,24,00,54,12.80
2010,08,24,00,55,12.80
2010,08,24,00,56,12.70
2010,08,24,00,57,12.70
2010,08,24,00,58,12.70
2010,08,24,00,59,12.70
2010,08,24,01,00,12.70
2010,08,24,01,01,12.60
2010,08,24,01,02,12.60
2010,08,24,01,03,12.60
2010,08,24,01,04,12.60
2010,08,24,01,05,12.50
2010,08,24,01,06,12.50
2010,08,24,01,07,12.40
2010,08,24,01,08,12.40
2010,08,24,01,09,12.40
2010,08,24,01,10,12.40
2010,08,24,01,11,12.40
2010,08,24,01,12,12.30
2010,08,24,01,13,12.30
2010,08,24,01,14,12.30
2010,08,24,01,15,12.30
2010,08,24,01,16,12.30
2010,08,24,01,17,12.30
2010,08,24,01,18,12.30
2010,08,24,01,19,12.30
2010,08,24,01,20,12.20
2010,08,24,01,21,12.20
2010,08,24,01,22,12.20
2010,08,24,01,23,12.20
2010,08,24,01,24,12.20
2010,08,24,01,25,12.20
2010,08,24,01,26,12.20
2010,08,24,01,27,12.10
2010,08,24,01,28,12.10
2010,08,24,01,29,12.10
2010,08,24,01,30,12.10
2010,08,24,01,31,12.10
2010,08,24,01,32,12.10
2010,08,24,01,33,12.10
2010,08,24,01,34,12.00
2010,08,24,01,35,12.00
2010,08,24,01,36,12.00
2010,08,24,01,37,12.00
2010,08,24,01,38,11.90
2010,08,24,01,39,11.90
2010,08,24,01,40,11.90
2010,08,24,01,41,11.90
2010,08,24,01,42,11.80
2010,08,24,01,43,11.80
2010,08,24,01,44,11.80
2010,08,24,01,45,11.80
2010,08,24,01,46,11.80
2010,08,24,01,47,11.70
2010,08,24,01,48,11.70
2010,08,24,01,49,11.70
2010,08,24,01,50,11.70
2010,08,24,01,51,11.70
2010,08,24,01,52,11.70
2010,08,24,01,53,11.60
2010,08,24,01,54,11.60
2010,08,24,01,55,11.60
2010,08,24,01,56,11.60
2010,08,24,01,57,11.60
2010,08,24,01,58,11.60
2010,08,24,01,59,11.50
2010,08,24,02,00,11.50
2010,08,24,02,01,11.50
2010,08,24,02,02,11.50
2010,08,24,02,03,11.50
2010,08,24,02,04,11.40
2010,08,24,02,05,11.40
2010,08,24,02,06,11.50
2010,08,24,02,07,11.50
2010,08,24,02,08,11.50
2010,08,24,02,09,11.50
2010,08,24,02,10,11.50
2010,08,24,02,11,11.60
2010,08,24,02,12,11.60
2010,08,24,02,13,11.60
2010,08,24,02,14,11.60
2010,08,24,02,15,11.60
2010,08,24,02,16,11.60
2010,08,24,02,17,11.60
2010,08,24,02,18,11.60
2010,08,24,02,19,11.60
2010,08,24,02,20,11.60
2010,08,24,02,21,11.60
2010,08,24,02,22,11.60
2010,08,24,02,23,11.60
2010,08,24,02,24,11.60
2010,08,24,02,25,11.50
2010,08,24,02,26,11.50
2010,08,24,02,27,11.50
2010,08,24,02,28,11.50
2010,08,24,02,29,11.50
2010,08,24,02,30,11.50
2010,08,24,02,31,11.50
2010,08,24,02,32,11.40
2010,08,24,02,33,11.40
2010,08,24,02,34,11.40
2010,08,24,02,35,11.40
2010,08,24,02,36,11.40
2010,08,24,02,37,11.40
2010,08,24,02,38,11.40
2010,08,24,02,39,11.40
2010,08,24,02,40,11.40
2010,08,24,02,41,11.40
2010,08,24,02,42,11.30
2010,08,24,02,43,11.30
2010,08,24,02,44,11.30
2010,08,24,02,45,11.30
2010,08,24,02,46,11.30
2010,08,24,02,47,11.30
2010,08,24,02,48,11.30
2010,08,24,02,49,11.30
2010,08,24,02,50,11.30
2010,08,24,02,51,11.30
2010,08,24,02,52,11.30
2010,08,24,02,53,11.30
2010,08,24,02,54,11.20
2010,08,24,02,55,11.20
2010,08,24,02,56,11.20
2010,08,24,02,57,11.20
2010,08,24,02,58,11.20
2010,08,24,02,59,11.20
2010,08,24,03,00,11.20
2010,08,24,03,01,11.10
2010,08,24,03,02,11.10
2010,08,24,03,03,11.10
2010,08,24,03,06,11.00
2010,08,24,03,07,11.00
2010,08,24,03,08,11.00
2010,08,24,03,09,11.00
2010,08,24,03,10,11.00
2010,08,24,03,11,10.90
2010,08,24,03,12,10.90
2010,08,24,03,13,10.90
2010,08,24,03,14,10.90
2010,08,24,03,15,10.80
2010,08,24,03,16,10.80
2010,08,24,03,17,10.80
2010,08,24,03,18,10.80
2010,08,24,03,19,10.80
2010,08,24,03,20,10.80
2010,08,24,03,21,10.80
2010,08,24,03,22,10.80
2010,08,24,03,23,10.80
2010,08,24,03,24,10.80
2010,08,24,03,25,10.80
2010,08,24,03,26,10.70
2010,08,24,03,27,10.70
2010,08,24,03,28,10.70
2010,08,24,03,29,10.70
2010,08,24,03,30,10.70
2010,08,24,03,31,10.70
2010,08,24,03,32,10.70
2010,08,24,03,33,10.70
2010,08,24,03,34,10.70
2010,08,24,03,35,10.70
2010,08,24,03,36,10.60
2010,08,24,03,37,10.60
2010,08,24,03,38,10.60
2010,08,24,03,39,10.60
2010,08,24,03,40,10.60
2010,08,24,03,41,10.60
2010,08,24,03,42,10.60
2010,08,24,03,43,10.60
2010,08,24,03,44,10.50
2010,08,24,03,45,10.50
2010,08,24,03,46,10.50
2010,08,24,03,47,10.40
2010,08,24,03,48,10.40
2010,08,24,03,49,10.40
2010,08,24,03,50,10.40
2010,08,24,03,51,10.30
2010,08,24,03,52,10.30
2010,08,24,03,53,10.30
2010,08,24,03,54,10.30
2010,08,24,03,55,10.30
2010,08,24,03,56,10.30
2010,08,24,03,57,10.30
2010,08,24,03,58,10.30
2010,08,24,03,59,10.30
2010,08,24,04,00,10.30
2010,08,24,04,01,10.30
2010,08,24,04,02,10.40
2010,08,24,04,03,10.40
2010,08,24,04,04,10.40
2010,08,24,04,05,10.40
2010,08,24,04,06,10.40
2010,08,24,04,07,10.40
2010,08,24,04,08,10.40
2010,08,24,04,09,10.40
2010,08,24,04,10,10.40
2010,08,24,04,11,10.40
2010,08,24,04,12,10.40
2010,08,24,04,13,10.40
2010,08,24,04,14,10.40
2010,08,24,04,15,10.40
2010,08,24,04,16,10.40
2010,08,24,04,17,10.40
2010,08,24,04,18,10.40
2010,08,24,04,19,10.40
2010,08,24,04,20,10.40
2010,08,24,04,21,10.40
2010,08,24,04,22,10.40
2010,08,24,04,23,10.40
2010,08,24,04,24,10.40
2010,08,24,04,25,10.40
2010,08,24,04,26,10.40
2010,08,24,04,27,10.40
2010,08,24,04,28,10.40
2010,08,24,04,29,10.30
2010,08,24,04,30,10.30
2010,08,24,04,31,10.30
2010,08,24,04,32,10.30
2010,08,24,04,33,10.30
2010,08,24,04,34,10.30
2010,08,24,04,35,10.30
2010,08,24,04,36,10.30
2010,08,24,04,37,10.20
2010,08,24,04,38,10.20
2010,08,24,04,39,10.20
2010,08,24,04,40,10.20
2010,08,24,04,41,10.20
2010,08,24,04,42,10.10
2010,08,24,04,43,10.10
2010,08,24,04,44,10.10
2010,08,24,04,45,10.10
2010,08,24,04,46,10.00
2010,08,24,04,47,10.00
2010,08,24,04,48,9.90
2010,08,24,04,49,9.90
2010,08,24,04,50,9.90
2010,08,24,04,51,9.90
2010,08,24,04,52,9.80
2010,08,24,04,53,9.80
2010,08,24,04,54,9.80
2010,08,24,04,55,9.80
2010,08,24,04,56,9.80
2010,08,24,04,57,9.80
2010,08,24,04,58,9.70
2010,08,24,04,59,9.70
2010,08,24,05,00,9.70
2010,08,24,05,01,9.70
2010,08,24,05,02,9.70
2010,08,24,05,03,9.70
2010,08,24,05,04,9.70
2010,08,24,05,05,9.70
2010,08,24,05,06,9.80
2010,08,24,05,07,9.80
2010,08,24,05,08,9.80
2010,08,24,05,09,9.80
2010,08,24,05,10,9.80
2010,08,24,05,11,9.80
2010,08,24,05,12,9.80
2010,08,24,05,13,9.80
2010,08,24,05,14,9.80
2010,08,24,05,15,9.80
2010,08,24,05,16,9.80
2010,08,24,05,17,9.80
2010,08,24,05,18,9.80
2010,08,24,05,19,9.80
2010,08,24,05,20,9.80
2010,08,24,05,21,9.80
2010,08,24,05,22,9.70
2010,08,24,05,23,9.70
2010,08,24,05,24,9.70
2010,08,24,05,25,9.70
2010,08,24,05,26,9.70
2010,08,24,05,27,9.70
2010,08,24,05,28,9.70
2010,08,24,05,29,9.70
2010,08,24,05,30,9.70
2010,08,24,05,31,9.70
2010,08,24,05,32,9.70
2010,08,24,05,33,9.70
2010,08,24,05,34,9.70
2010,08,24,05,35,9.70
2010,08,24,05,36,9.70
2010,08,24,05,37,9.70
2010,08,24,05,38,9.60
2010,08,24,05,39,9.60
2010,08,24,05,40,9.60
2010,08,24,05,41,9.60
2010,08,24,05,42,9.60
2010,08,24,05,43,9.50
2010,08,24,05,44,9.50
2010,08,24,05,45,9.50
2010,08,24,05,46,9.50
2010,08,24,05,47,9.40
2010,08,24,05,48,9.40
2010,08,24,05,49,9.40
2010,08,24,05,50,9.40
2010,08,24,05,51,9.40
2010,08,24,05,52,9.30
2010,08,24,05,53,9.30
2010,08,24,05,54,9.30
2010,08,24,05,55,9.30
2010,08,24,05,56,9.30
2010,08,24,05,57,9.30
2010,08,24,05,58,9.30
2010,08,24,05,59,9.30
2010,08,24,06,00,9.30
2010,08,24,06,01,9.30
2010,08,24,06,02,9.30
2010,08,24,06,03,9.30
2010,08,24,06,04,9.30
2010,08,24,06,05,9.30
2010,08,24,06,06,9.30
2010,08,24,06,07,9.30
2010,08,24,06,08,9.30
2010,08,24,06,09,9.30
2010,08,24,06,10,9.30
2010,08,24,06,11,9.30
2010,08,24,06,12,9.30
2010,08,24,06,13,9.30
2010,08,24,06,14,9.30
2010,08,24,06,15,9.30
2010,08,24,06,16,9.30
2010,08,24,06,17,9.40
2010,08,24,06,18,9.40
2010,08,24,06,19,9.40
2010,08,24,06,20,9.30
2010,08,24,06,21,9.30
2010,08,24,06,22,9.30
2010,08,24,06,23,9.30
2010,08,24,06,24,9.30
2010,08,24,06,25,9.30
2010,08,24,06,26,9.30
2010,08,24,06,27,9.30
2010,08,24,06,28,9.30
2010,08,24,06,29,9.20
2010,08,24,06,30,9.20
2010,08,24,06,31,9.20
2010,08,24,06,32,9.20
2010,08,24,06,33,9.20
2010,08,24,06,34,9.20
2010,08,24,06,35,9.20
2010,08,24,06,36,9.20
2010,08,24,06,37,9.20
2010,08,24,06,38,9.20
2010,08,24,06,39,9.20
2010,08,24,06,40,9.20
2010,08,24,06,41,9.10
2010,08,24,06,42,9.10
2010,08,24,06,43,9.10
2010,08,24,06,44,9.10
2010,08,24,06,45,9.10
2010,08,24,06,46,9.10
2010,08,24,06,47,9.10
2010,08,24,06,48,9.10
2010,08,24,06,49,9.10
2010,08,24,06,50,9.10
2010,08,24,06,51,9.10
2010,08,24,06,52,9.10
2010,08,24,06,53,9.10
2010,08,24,06,54,9.10
2010,08,24,06,55,9.10
2010,08,24,06,56,9.10
2010,08,24,06,57,9.10
2010,08,24,06,58,9.10
2010,08,24,06,59,9.10
2010,08,24,07,00,9.10
2010,08,24,07,01,9.10
2010,08,24,07,02,9.20
2010,08,24,07,03,9.20
2010,08,24,07,04,9.20
2010,08,24,07,05,9.20
2010,08,24,07,06,9.20
2010,08,24,07,07,9.30
2010,08,24,07,08,9.30
2010,08,24,07,09,9.30
2010,08,24,07,10,9.30
2010,08,24,07,11,9.30
2010,08,24,07,12,9.30
2010,08,24,07,13,9.40
2010,08,24,07,14,9.40
2010,08,24,07,15,9.40
2010,08,24,07,16,9.50
2010,08,24,07,17,9.50
2010,08,24,07,18,9.60
2010,08,24,07,19,9.60
2010,08,24,07,20,9.70
2010,08,24,07,21,9.70
2010,08,24,07,22,9.80
2010,08,24,07,23,9.90
2010,08,24,07,24,9.90
2010,08,24,07,25,10.00
2010,08,24,07,26,10.00
2010,08,24,07,27,10.10
2010,08,24,07,28,10.10
2010,08,24,07,29,10.20
2010,08,24,07,30,10.30
2010,08,24,07,31,10.30
2010,08,24,07,32,10.30
2010,08,24,07,33,10.40
2010,08,24,07,34,10.50
2010,08,24,07,35,10.50
2010,08,24,07,36,10.60
2010,08,24,07,37,10.60
2010,08,24,07,38,10.70
2010,08,24,07,39,10.70
2010,08,24,07,40,10.80
2010,08,24,07,41,10.80
2010,08,24,07,42,10.90
2010,08,24,07,43,10.90
2010,08,24,07,44,10.90
2010,08,24,07,45,11.00
2010,08,24,07,46,11.00
2010,08,24,07,47,11.10
2010,08,24,07,48,11.20
2010,08,24,07,49,11.20
2010,08,24,07,50,11.20
2010,08,24,07,51,11.30
2010,08,24,07,52,11.30
2010,08,24,07,53,11.40
2010,08,24,07,54,11.40
2010,08,24,07,55,11.50
2010,08,24,07,56,11.60
2010,08,24,07,57,11.60
2010,08,24,07,58,11.60
2010,08,24,07,59,11.70
2010,08,24,08,00,11.70
2010,08,24,08,01,11.70
2010,08,24,08,02,11.70
2010,08,24,08,03,11.80
2010,08,24,08,04,11.80
2010,08,24,08,05,11.80
2010,08,24,08,06,11.80
2010,08,24,08,07,11.80
2010,08,24,08,08,11.90
2010,08,24,08,09,11.90
2010,08,24,08,10,12.00
2010,08,24,08,11,12.00
2010,08,24,08,12,12.10
2010,08,24,08,13,12.10
2010,08,24,08,14,12.10
2010,08,24,08,15,12.20
2010,08,24,08,16,12.30
2010,08,24,08,17,12.30
2010,08,24,08,18,12.40
2010,08,24,08,19,12.50
2010,08,24,08,20,12.50
2010,08,24,08,21,12.60
2010,08,24,08,22,12.60
2010,08,24,08,23,12.70
2010,08,24,08,24,12.70
2010,08,24,08,25,12.80
2010,08,24,08,26,12.80
2010,08,24,08,27,12.90
2010,08,24,08,28,12.90
2010,08,24,08,29,13.00
2010,08,24,08,30,13.10
2010,08,24,08,31,13.10
2010,08,24,08,32,13.20
2010,08,24,08,33,13.20
2010,08,24,08,34,13.30
2010,08,24,08,35,13.30
2010,08,24,08,36,13.40
2010,08,24,08,37,13.40
2010,08,24,08,38,13.50
2010,08,24,08,39,13.60
2010,08,24,08,40,13.60
2010,08,24,08,41,13.70
2010,08,24,08,42,13.70
2010,08,24,08,43,13.80
2010,08,24,08,44,13.80
2010,08,24,08,45,13.90
2010,08,24,08,46,13.90
2010,08,24,08,47,14.00
2010,08,24,08,48,14.10
2010,08,24,08,49,14.20
2010,08,24,08,50,14.30
2010,08,24,08,51,14.40
2010,08,24,08,52,14.60
2010,08,24,08,53,14.70
2010,08,24,08,54,14.80
2010,08,24,08,55,14.90
2010,08,24,08,56,15.00
2010,08,24,08,57,15.10
2010,08,24,08,58,15.20
2010,08,24,08,59,15.30
2010,08,24,09,00,15.30
2010,08,24,09,01,15.40
2010,08,24,09,02,15.50
2010,08,24,09,03,15.60
2010,08,24,09,04,15.60
2010,08,24,09,05,15.70
2010,08,24,09,06,15.80
2010,08,24,09,07,15.90
2010,08,24,09,08,15.90
2010,08,24,09,09,16.00
2010,08,24,09,10,16.10
2010,08,24,09,11,16.20
2010,08,24,09,12,16.30
2010,08,24,09,13,16.40
2010,08,24,09,14,16.40
2010,08,24,09,15,16.40
2010,08,24,09,16,16.50
2010,08,24,09,17,16.50
2010,08,24,09,18,16.50
2010,08,24,09,19,16.60
2010,08,24,09,20,16.70
2010,08,24,09,21,16.80
2010,08,24,09,22,16.80
2010,08,24,09,23,16.80
2010,08,24,09,24,16.80
2010,08,24,09,25,16.80
2010,08,24,09,26,16.70
2010,08,24,09,27,16.70
2010,08,24,09,28,16.70
2010,08,24,09,29,16.70
2010,08,24,09,30,16.70
2010,08,24,09,31,16.70
2010,08,24,09,32,16.70
2010,08,24,09,33,16.70
2010,08,24,09,34,16.80
2010,08,24,09,35,16.80
2010,08,24,09,36,16.90
2010,08,24,09,37,17.00
2010,08,24,09,38,17.10
2010,08,24,09,39,17.10
2010,08,24,09,40,17.10
2010,08,24,09,41,17.20
2010,08,24,09,42,17.10
2010,08,24,09,43,17.20
2010,08,24,09,44,17.20
2010,08,24,09,45,17.20
2010,08,24,09,46,17.20
2010,08,24,09,47,17.20
2010,08,24,09,48,17.20
2010,08,24,09,49,17.20
2010,08,24,09,50,17.20
2010,08,24,09,51,17.30
2010,08,24,09,52,17.30
2010,08,24,09,53,17.40
2010,08,24,09,54,17.50
2010,08,24,09,55,17.60
2010,08,24,09,56,17.70
2010,08,24,09,57,17.70
2010,08,24,09,58,17.80
2010,08,24,09,59,17.80
2010,08,24,10,00,17.80
2010,08,24,10,01,17.80
2010,08,24,10,02,17.80
2010,08,24,10,03,17.80
2010,08,24,10,04,17.80
2010,08,24,10,05,17.80
2010,08,24,10,06,17.80
2010,08,24,10,07,17.80
2010,08,24,10,08,17.80
2010,08,24,10,09,17.80
2010,08,24,10,10,17.80
2010,08,24,10,11,17.80
2010,08,24,10,12,17.80
2010,08,24,10,13,17.90
2010,08,24,10,14,17.90
2010,08,24,10,15,17.90
2010,08,24,10,16,17.90
2010,08,24,10,17,17.90
2010,08,24,10,18,17.80
2010,08,24,10,19,17.80
2010,08,24,10,20,17.80
2010,08,24,10,21,17.90
2010,08,24,10,22,17.90
2010,08,24,10,23,18.00
2010,08,24,10,24,18.10
2010,08,24,10,25,18.20
2010,08,24,10,26,18.30
2010,08,24,10,27,18.40
2010,08,24,10,28,18.60
2010,08,24,10,29,18.60
2010,08,24,10,30,18.70
2010,08,24,10,31,18.70
2010,08,24,10,32,18.90
2010,08,24,10,33,19.00
2010,08,24,10,34,19.10
2010,08,24,10,35,19.30
2010,08,24,10,36,19.40
2010,08,24,10,37,19.50
2010,08,24,10,38,19.60
2010,08,24,10,39,19.70
2010,08,24,10,40,19.70
2010,08,24,10,41,19.60
2010,08,24,10,42,19.60
2010,08,24,10,43,19.60
2010,08,24,10,44,19.60
2010,08,24,10,45,19.60
2010,08,24,10,46,19.60
2010,08,24,10,47,19.70
2010,08,24,10,48,19.70
2010,08,24,10,49,19.70
2010,08,24,10,50,19.70
2010,08,24,10,51,19.60
2010,08,24,10,52,19.70
2010,08,24,10,53,19.70
2010,08,24,10,54,19.70
2010,08,24,10,55,19.80
2010,08,24,10,56,19.90
2010,08,24,10,57,20.00
2010,08,24,10,58,20.00
2010,08,24,10,59,20.10
2010,08,24,11,00,20.10
2010,08,24,11,01,20.20
2010,08,24,11,02,20.30
2010,08,24,11,03,20.40
2010,08,24,11,04,20.50
2010,08,24,11,05,20.60
2010,08,24,11,06,20.70
2010,08,24,11,07,20.80
2010,08,24,11,08,21.00
2010,08,24,11,09,21.10
2010,08,24,11,10,21.20
2010,08,24,11,11,21.30
2010,08,24,11,12,21.30
2010,08,24,11,13,21.30
2010,08,24,11,14,21.30
2010,08,24,11,15,21.30
2010,08,24,11,16,21.30
2010,08,24,11,17,21.20
2010,08,24,11,18,21.20
2010,08,24,11,19,21.10
2010,08,24,11,20,21.10
2010,08,24,11,21,21.10
2010,08,24,11,22,21.20
2010,08,24,11,23,21.20
2010,08,24,11,24,21.30
2010,08,24,11,25,21.40
2010,08,24,11,26,21.40
2010,08,24,11,27,21.50
2010,08,24,11,28,21.50
2010,08,24,11,29,21.60
2010,08,24,11,30,21.60
2010,08,24,11,31,21.60
2010,08,24,11,32,21.70
2010,08,24,11,33,21.80
2010,08,24,11,34,21.90
2010,08,24,11,35,22.00
2010,08,24,11,36,22.00
2010,08,24,11,37,22.10
2010,08,24,11,38,22.20
2010,08,24,11,39,22.20
2010,08,24,11,40,22.20
2010,08,24,11,41,22.20
2010,08,24,11,42,22.20
2010,08,24,11,43,22.30
2010,08,24,11,44,22.30
2010,08,24,11,45,22.30
2010,08,24,11,46,22.30
2010,08,24,11,47,22.30
2010,08,24,11,48,22.30
2010,08,24,11,49,22.40
2010,08,24,11,50,22.50
2010,08,24,11,51,22.60
2010,08,24,11,52,22.60
2010,08,24,11,53,22.60
2010,08,24,11,54,22.70
2010,08,24,11,55,22.70
2010,08,24,11,56,22.70
2010,08,24,11,57,22.70
2010,08,24,11,58,22.80
2010,08,24,11,59,22.80
2010,08,24,12,00,22.80
2010,08,24,12,01,22.80
2010,08,24,12,02,22.90
2010,08,24,12,03,23.00
2010,08,24,12,04,23.10
2010,08,24,12,05,23.20
2010,08,24,12,06,23.30
2010,08,24,12,07,23.40
2010,08,24,12,08,23.40
2010,08,24,12,09,23.50
2010,08,24,12,10,23.60
2010,08,24,12,11,23.70
2010,08,24,12,12,23.70
2010,08,24,12,13,23.70
2010,08,24,12,14,23.70
2010,08,24,12,15,23.60
2010,08,24,12,16,23.60
2010,08,24,12,17,23.50
2010,08,24,12,18,23.50
2010,08,24,12,19,23.50
2010,08,24,12,20,23.60
2010,08,24,12,21,23.60
2010,08,24,12,22,23.50
2010,08,24,12,23,23.50
2010,08,24,12,24,23.60
2010,08,24,12,25,23.60
2010,08,24,12,26,23.70
2010,08,24,12,27,23.80
2010,08,24,12,28,24.00
2010,08,24,12,29,24.10
2010,08,24,12,30,24.20
2010,08,24,12,31,24.40
2010,08,24,12,32,24.50
2010,08,24,12,33,24.50
2010,08,24,12,34,24.60
2010,08,24,12,35,24.70
2010,08,24,12,36,24.80
2010,08,24,12,37,24.90
2010,08,24,12,38,25.00
2010,08,24,12,39,25.10
2010,08,24,12,40,25.20
2010,08,24,12,41,25.30
2010,08,24,12,42,25.30
2010,08,24,12,43,25.30
2010,08,24,12,44,25.20
2010,08,24,12,45,25.10
2010,08,24,12,46,25.00
2010,08,24,12,47,24.90
2010,08,24,12,48,24.90
2010,08,24,12,49,24.90
2010,08,24,12,50,25.00
2010,08,24,12,51,25.10
2010,08,24,12,52,25.10
2010,08,24,12,53,25.20
2010,08,24,12,54,25.20
2010,08,24,12,55,25.20
2010,08,24,12,56,25.20
2010,08,24,12,57,25.20
2010,08,24,12,58,25.10
2010,08,24,12,59,25.20
2010,08,24,13,00,25.20
2010,08,24,13,01,25.30
2010,08,24,13,02,25.30
2010,08,24,13,03,25.40
2010,08,24,13,04,25.40
2010,08,24,13,05,25.40
2010,08,24,13,06,25.40
2010,08,24,13,07,25.50
2010,08,24,13,08,25.60
2010,08,24,13,09,25.70
2010,08,24,13,10,25.80
2010,08,24,13,11,26.00
2010,08,24,13,12,26.10
2010,08,24,13,13,26.20
2010,08,24,13,14,26.20
2010,08,24,13,15,26.20
2010,08,24,13,16,26.30
2010,08,24,13,17,26.30
2010,08,24,13,18,26.30
2010,08,24,13,19,26.30
2010,08,24,13,20,26.20
2010,08,24,13,21,26.20
2010,08,24,13,22,26.10
2010,08,24,13,23,26.10
2010,08,24,13,24,26.00
2010,08,24,13,25,26.00
2010,08,24,13,26,25.90
2010,08,24,13,27,26.00
2010,08,24,13,28,26.00
2010,08,24,13,29,26.00
2010,08,24,13,30,26.10
2010,08,24,13,31,26.10
2010,08,24,13,32,26.20
2010,08,24,13,33,26.30
2010,08,24,13,34,26.50
2010,08,24,13,35,26.60
2010,08,24,13,36,26.70
2010,08,24,13,37,26.90
2010,08,24,13,38,26.80
2010,08,24,13,39,26.80
2010,08,24,13,40,26.80
2010,08,24,13,41,26.80
2010,08,24,13,42,26.70
2010,08,24,13,43,26.80
2010,08,24,13,44,26.80
2010,08,24,13,45,26.80
2010,08,24,13,46,26.80
2010,08,24,13,47,26.80
2010,08,24,13,48,26.90
2010,08,24,13,49,27.00
2010,08,24,13,50,27.10
2010,08,24,13,51,27.10
2010,08,24,13,52,27.20
2010,08,24,13,53,27.30
2010,08,24,13,54,27.50
2010,08,24,13,55,27.60
2010,08,24,13,56,27.70
2010,08,24,13,57,27.70
2010,08,24,13,58,27.70
2010,08,24,13,59,27.80
2010,08,24,14,00,27.80
2010,08,24,14,01,27.70
2010,08,24,14,02,27.70
2010,08,24,14,03,27.60
2010,08,24,14,04,27.70
2010,08,24,14,05,27.70
2010,08,24,14,06,27.70
2010,08,24,14,07,27.80
2010,08,24,14,08,27.80
2010,08,24,14,09,27.80
2010,08,24,14,10,27.70
2010,08,24,14,11,27.60
2010,08,24,14,12,27.50
2010,08,24,14,13,27.50
2010,08,24,14,14,27.40
2010,08,24,14,15,27.40
2010,08,24,14,16,27.40
2010,08,24,14,17,27.40
2010,08,24,14,18,27.40
2010,08,24,14,19,27.50
2010,08,24,14,20,27.50
2010,08,24,14,21,27.50
2010,08,24,14,22,27.60
2010,08,24,14,23,27.60
2010,08,24,14,24,27.80
2010,08,24,14,25,27.90
2010,08,24,14,26,28.10
2010,08,24,14,27,28.20
2010,08,24,14,28,28.40
2010,08,24,14,29,28.50
2010,08,24,14,30,28.60
2010,08,24,14,31,28.60
2010,08,24,14,32,28.70
2010,08,24,14,33,28.70
2010,08,24,14,34,28.80
2010,08,24,14,35,28.80
2010,08,24,14,36,28.80
2010,08,24,14,37,28.70
2010,08,24,14,38,28.70
2010,08,24,14,39,28.70
2010,08,24,14,40,28.60
2010,08,24,14,41,28.50
2010,08,24,14,42,28.40
2010,08,24,14,43,28.40
2010,08,24,14,44,28.40
2010,08,24,14,45,28.40
2010,08,24,14,46,28.30
2010,08,24,14,47,28.40
2010,08,24,14,48,28.50
2010,08,24,14,49,28.60
2010,08,24,14,50,28.80
2010,08,24,14,51,28.90
2010,08,24,14,52,29.00
2010,08,24,14,53,29.10
2010,08,24,14,54,29.10
2010,08,24,14,55,29.10
2010,08,24,14,56,29.20
2010,08,24,14,57,29.20
2010,08,24,14,58,29.20
2010,08,24,14,59,29.20
2010,08,24,15,00,29.20
2010,08,24,15,01,29.10
2010,08,24,15,02,29.10
2010,08,24,15,03,29.20
2010,08,24,15,04,29.20
2010,08,24,15,05,29.20
2010,08,24,15,06,29.10
2010,08,24,15,07,29.10
2010,08,24,15,08,29.10
2010,08,24,15,09,29.10
2010,08,24,15,10,29.10
2010,08,24,15,11,29.00
2010,08,24,15,12,29.00
2010,08,24,15,13,29.10
2010,08,24,15,14,29.10
2010,08,24,15,15,29.20
2010,08,24,15,16,29.20
2010,08,24,15,17,29.20
2010,08,24,15,18,29.30
2010,08,24,15,19,29.30
2010,08,24,15,20,29.30
2010,08,24,15,21,29.40
2010,08,24,15,22,29.40
2010,08,24,15,23,29.40
2010,08,24,15,24,29.40
2010,08,24,15,25,29.50
2010,08,24,15,26,29.50
2010,08,24,15,27,29.60
2010,08,24,15,28,29.60
2010,08,24,15,29,29.60
2010,08,24,15,30,29.70
2010,08,24,15,31,29.80
2010,08,24,15,32,29.80
2010,08,24,15,33,29.90
2010,08,24,15,34,30.00
2010,08,24,15,35,30.00
2010,08,24,15,36,29.90
2010,08,24,15,37,29.80
2010,08,24,15,38,29.70
2010,08,24,15,39,29.60
2010,08,24,15,40,29.40
2010,08,24,15,41,29.20
2010,08,24,15,42,29.10
2010,08,24,15,43,29.00
2010,08,24,15,44,29.00
2010,08,24,15,45,28.90
2010,08,24,15,46,28.90
2010,08,24,15,47,28.80
2010,08,24,15,48,28.70
2010,08,24,15,49,28.80
2010,08,24,15,50,28.80
2010,08,24,15,51,28.90
2010,08,24,15,52,29.00
2010,08,24,15,53,29.10
2010,08,24,15,54,29.10
2010,08,24,15,55,29.10
2010,08,24,15,56,29.00
2010,08,24,15,57,28.90
2010,08,24,15,58,28.90
2010,08,24,15,59,28.90
2010,08,24,16,00,28.90
2010,08,24,16,01,28.90
2010,08,24,16,02,28.90
2010,08,24,16,03,28.90
2010,08,24,16,04,28.90
2010,08,24,16,05,28.90
2010,08,24,16,06,29.00
2010,08,24,16,07,29.00
2010,08,24,16,08,29.10
2010,08,24,16,09,29.20
2010,08,24,16,10,29.20
2010,08,24,16,11,29.20
2010,08,24,16,12,29.20
2010,08,24,16,13,29.30
2010,08,24,16,14,29.30
2010,08,24,16,15,29.40
2010,08,24,16,16,29.50
2010,08,24,16,17,29.60
2010,08,24,16,18,29.60
2010,08,24,16,19,29.50
2010,08,24,16,20,29.50
2010,08,24,16,21,29.40
2010,08,24,16,22,29.40
2010,08,24,16,23,29.40
2010,08,24,16,24,29.40
2010,08,24,16,25,29.40
2010,08,24,16,26,29.50
2010,08,24,16,27,29.60
2010,08,24,16,28,29.70
2010,08,24,16,29,29.70
2010,08,24,16,30,29.80
2010,08,24,16,31,29.90
2010,08,24,16,32,30.00
2010,08,24,16,33,30.10
2010,08,24,16,34,30.20
2010,08,24,16,35,30.20
2010,08,24,16,36,30.20
2010,08,24,16,37,30.20
2010,08,24,16,38,30.20
2010,08,24,16,39,30.20
2010,08,24,16,40,30.20
2010,08,24,16,41,30.30
2010,08,24,16,42,30.30
2010,08,24,16,43,30.30
2010,08,24,16,44,30.20
2010,08,24,16,45,30.20
2010,08,24,16,46,30.20
2010,08,24,16,47,30.20
2010,08,24,16,48,30.10
2010,08,24,16,49,30.00
2010,08,24,16,50,29.90
2010,08,24,16,51,29.80
2010,08,24,16,52,29.80
2010,08,24,16,53,29.90
2010,08,24,16,54,29.90
2010,08,24,16,55,29.90
2010,08,24,16,56,29.90
2010,08,24,16,57,29.90
2010,08,24,16,58,29.80
2010,08,24,16,59,29.80
2010,08,24,17,00,29.80
2010,08,24,17,01,29.80
2010,08,24,17,02,29.90
2010,08,24,17,03,29.90
2010,08,24,17,04,29.90
2010,08,24,17,05,30.00
2010,08,24,17,06,30.10
2010,08,24,17,07,30.10
2010,08,24,17,08,30.20
2010,08,24,17,09,30.20
2010,08,24,17,10,30.20
2010,08,24,17,11,30.20
2010,08,24,17,12,30.20
2010,08,24,17,13,30.20
2010,08,24,17,14,30.10
2010,08,24,17,15,30.00
2010,08,24,17,16,30.00
2010,08,24,17,17,29.90
2010,08,24,17,18,29.90
2010,08,24,17,19,30.00
2010,08,24,17,20,30.00
2010,08,24,17,21,30.10
2010,08,24,17,22,30.10
2010,08,24,17,23,30.20
2010,08,24,17,24,30.20
2010,08,24,17,25,30.30
2010,08,24,17,26,30.30
2010,08,24,17,27,30.40
2010,08,24,17,28,30.40